Time,TemperatureF,DewpointF,PressureIn,WindDirection,WindDirectionDegrees,WindSpeedMPH,WindSpeedGustMPH,Humidity,HourlyPrecipIn,Conditions,Clouds,dailyrainin,SoftwareType,DateUTC
2013-03-15 00:01:00,58.0,13.0,30.26,SSW,193,2.0,2.0,17,0.00,,,0.00,,2013-03-15 07:01:00,
2013-03-15 00:11:00,58.0,13.0,30.26,SSW,193,2.0,2.0,17,0.00,,,0.00,,2013-03-15 07:11:00,
2013-03-15 00:21:00,58.0,13.0,30.26,SSW,200,2.0,3.0,17,0.00,,,0.00,,2013-03-15 07:21:00,
2013-03-15 00:31:00,58.0,13.0,30.26,SSW,196,2.0,3.0,17,0.00,,,0.00,,2013-03-15 07:31:00,
2013-03-15 00:42:00,58.0,13.0,30.26,SSW,196,2.0,3.0,17,0.00,,,0.00,,2013-03-15 07:42:00,
2013-03-15 00:52:00,61.0,13.0,30.26,SSE,157,1.0,2.0,15,0.00,,,0.00,,2013-03-15 07:52:00,
2013-03-15 01:01:00,60.0,12.0,30.26,SSE,162,0.0,2.0,15,0.00,,,0.00,,2013-03-15 08:01:00,
2013-03-15 01:22:00,62.0,12.0,30.26,SE,146,0.0,1.0,14,0.00,,,0.00,,2013-03-15 08:22:00,
2013-03-15 01:31:00,62.0,14.0,30.26,SSE,150,2.0,3.0,15,0.00,,,0.00,,2013-03-15 08:31:00,
2013-03-15 01:52:00,60.0,14.0,30.26,SSE,148,5.0,6.0,16,0.00,,,0.00,,2013-03-15 08:52:00,
2013-03-15 02:01:00,60.0,14.0,30.25,South,172,4.0,6.0,16,0.00,,,0.00,,2013-03-15 09:01:00,
2013-03-15 02:21:00,58.0,13.0,30.25,South,181,2.0,2.0,17,0.00,,,0.00,,2013-03-15 09:21:00,
2013-03-15 02:32:00,58.0,13.0,30.25,South,181,2.0,2.0,17,0.00,,,0.00,,2013-03-15 09:32:00,
2013-03-15 02:53:00,56.0,14.0,30.24,WNW,287,1.0,3.0,19,0.00,,,0.00,,2013-03-15 09:53:00,
2013-03-15 03:02:00,55.0,15.0,30.24,SSW,204,1.0,2.0,20,0.00,,,0.00,,2013-03-15 10:02:00,
2013-03-15 03:12:00,55.0,15.0,30.24,SSW,204,1.0,2.0,20,0.00,,,0.00,,2013-03-15 10:12:00,
2013-03-15 03:23:00,52.0,14.0,30.24,SW,222,0.0,2.0,22,0.00,,,0.00,,2013-03-15 10:23:00,
2013-03-15 03:32:00,53.0,14.0,30.24,SSW,194,1.0,2.0,21,0.00,,,0.00,,2013-03-15 10:32:00,
2013-03-15 03:41:00,53.0,14.0,30.24,SSW,194,1.0,2.0,21,0.00,,,0.00,,2013-03-15 10:41:00,
2013-03-15 03:52:00,57.0,14.0,30.24,SSE,152,1.0,1.0,18,0.00,,,0.00,,2013-03-15 10:52:00,
2013-03-15 04:02:00,56.0,14.0,30.24,SSE,166,1.0,2.0,19,0.00,,,0.00,,2013-03-15 11:02:00,
2013-03-15 04:22:00,54.0,14.0,30.24,SSE,161,2.0,3.0,20,0.00,,,0.00,,2013-03-15 11:22:00,
2013-03-15 04:32:00,56.0,14.0,30.24,SSE,163,2.0,3.0,19,0.00,,,0.00,,2013-03-15 11:32:00,
2013-03-15 04:41:00,56.0,14.0,30.24,SSE,163,2.0,3.0,19,0.00,,,0.00,,2013-03-15 11:41:00,
2013-03-15 04:52:00,57.0,14.0,30.24,West,273,0.0,1.0,18,0.00,,,0.00,,2013-03-15 11:52:00,
2013-03-15 05:11:00,55.0,15.0,30.24,SSE,155,1.0,2.0,20,0.00,,,0.00,,2013-03-15 12:11:00,
2013-03-15 05:22:00,55.0,15.0,30.24,SSE,155,1.0,2.0,20,0.00,,,0.00,,2013-03-15 12:22:00,
2013-03-15 05:31:00,56.0,13.0,30.24,SE,130,2.0,3.0,18,0.00,,,0.00,,2013-03-15 12:31:00,
2013-03-15 05:52:00,56.0,13.0,30.24,SE,143,4.0,5.0,18,0.00,,,0.00,,2013-03-15 12:52:00,
2013-03-15 06:01:00,57.0,14.0,30.25,SSE,149,4.0,5.0,18,0.00,,,0.00,,2013-03-15 13:01:00,
2013-03-15 06:22:00,55.0,15.0,30.25,SE,141,6.0,7.0,20,0.00,,,0.00,,2013-03-15 13:22:00,
2013-03-15 06:52:00,56.0,14.0,30.25,SE,145,4.0,5.0,19,0.00,,,0.00,,2013-03-15 13:52:00,
2013-03-15 07:01:00,56.0,13.0,30.25,SE,146,4.0,6.0,18,0.00,,,0.00,,2013-03-15 14:01:00,
2013-03-15 07:22:00,54.0,14.0,30.25,WSW,255,0.0,1.0,20,0.00,,,0.00,,2013-03-15 14:22:00,
2013-03-15 07:32:00,56.0,14.0,30.25,ESE,122,0.0,1.0,19,0.00,,,0.00,,2013-03-15 14:32:00,
2013-03-15 07:52:00,58.0,16.0,30.26,WSW,250,0.0,1.0,19,0.00,,,0.00,,2013-03-15 14:52:00,
2013-03-15 08:01:00,58.0,16.0,30.26,WSW,250,0.0,0.0,19,0.00,,,0.00,,2013-03-15 15:01:00,
2013-03-15 08:21:00,60.0,16.0,30.26,NW,316,0.0,0.0,18,0.00,,,0.00,,2013-03-15 15:21:00,
2013-03-15 08:32:00,60.0,16.0,30.26,WNW,299,0.0,1.0,18,0.00,,,0.00,,2013-03-15 15:32:00,
2013-03-15 08:42:00,63.0,18.0,30.26,WNW,302,0.0,1.0,17,0.00,,,0.00,,2013-03-15 15:42:00,
2013-03-15 08:52:00,63.0,18.0,30.26,WNW,302,0.0,1.0,17,0.00,,,0.00,,2013-03-15 15:52:00,
2013-03-15 09:02:00,65.0,18.0,30.26,North,358,0.0,2.0,16,0.00,,,0.00,,2013-03-15 16:02:00,
2013-03-15 09:12:00,66.0,20.0,30.26,NNW,345,1.0,2.0,17,0.00,,,0.00,,2013-03-15 16:12:00,
2013-03-15 09:22:00,66.0,20.0,30.26,NNW,345,1.0,2.0,17,0.00,,,0.00,,2013-03-15 16:22:00,
2013-03-15 09:32:00,66.0,19.0,30.27,NNE,20,1.0,3.0,16,0.00,,,0.00,,2013-03-15 16:32:00,
2013-03-15 09:41:00,66.0,19.0,30.27,NNE,20,1.0,3.0,16,0.00,,,0.00,,2013-03-15 16:41:00,
2013-03-15 09:52:00,68.0,20.0,30.26,NE,34,2.0,6.0,16,0.00,,,0.00,,2013-03-15 16:52:00,
2013-03-15 10:01:00,70.0,19.0,30.26,ESE,111,2.0,4.0,14,0.00,,,0.00,,2013-03-15 17:01:00,
2013-03-15 10:11:00,70.0,19.0,30.26,ESE,111,2.0,4.0,14,0.00,,,0.00,,2013-03-15 17:11:00,
2013-03-15 10:22:00,72.0,18.0,30.26,NE,53,3.0,5.0,13,0.00,,,0.00,,2013-03-15 17:22:00,
2013-03-15 10:32:00,72.0,18.0,30.26,NE,51,3.0,5.0,13,0.00,,,0.00,,2013-03-15 17:32:00,
2013-03-15 10:42:00,72.0,18.0,30.26,NE,51,3.0,5.0,13,0.00,,,0.00,,2013-03-15 17:42:00,
2013-03-15 10:52:00,73.0,19.0,30.25,ENE,67,2.0,6.0,13,0.00,,,0.00,,2013-03-15 17:52:00,
2013-03-15 11:02:00,73.0,19.0,30.25,NE,51,2.0,5.0,13,0.00,,,0.00,,2013-03-15 18:02:00,
2013-03-15 11:11:00,73.0,19.0,30.25,NE,51,2.0,5.0,13,0.00,,,0.00,,2013-03-15 18:11:00,
2013-03-15 11:31:00,77.0,16.0,30.24,ESE,115,3.0,7.0,10,0.00,,,0.00,,2013-03-15 18:31:00,
2013-03-15 11:42:00,77.0,16.0,30.24,ESE,115,3.0,7.0,10,0.00,,,0.00,,2013-03-15 18:42:00,
2013-03-15 11:52:00,79.0,13.0,30.23,ENE,65,6.0,8.0,8,0.00,,,0.00,,2013-03-15 18:52:00,
2013-03-15 12:01:00,80.0,13.0,30.22,ESE,115,4.0,7.0,8,0.00,,,0.00,,2013-03-15 19:01:00,
2013-03-15 12:12:00,80.0,13.0,30.22,ESE,115,4.0,7.0,8,0.00,,,0.00,,2013-03-15 19:12:00,
2013-03-15 12:22:00,81.0,11.0,30.21,ESE,114,4.0,8.0,7,0.00,,,0.00,,2013-03-15 19:22:00,
2013-03-15 12:31:00,82.0,12.0,30.21,SSE,147,2.0,5.0,7,0.00,,,0.00,,2013-03-15 19:31:00,
2013-03-15 12:41:00,82.0,12.0,30.21,SSE,147,2.0,5.0,7,0.00,,,0.00,,2013-03-15 19:41:00,
2013-03-15 12:52:00,82.0,12.0,30.20,NE,39,4.0,5.0,7,0.00,,,0.00,,2013-03-15 19:52:00,
2013-03-15 13:02:00,82.0,12.0,30.19,West,281,3.0,11.0,7,0.00,,,0.00,,2013-03-15 20:02:00,
2013-03-15 13:11:00,82.0,12.0,30.19,West,281,3.0,11.0,7,0.00,,,0.00,,2013-03-15 20:11:00,
2013-03-15 13:22:00,83.0,13.0,30.18,West,264,4.0,15.0,7,0.00,,,0.00,,2013-03-15 20:22:00,
2013-03-15 13:31:00,84.0,6.0,30.17,West,259,12.0,17.0,5,0.00,,,0.00,,2013-03-15 20:31:00,
2013-03-15 13:41:00,84.0,6.0,30.17,West,259,12.0,17.0,5,0.00,,,0.00,,2013-03-15 20:41:00,
2013-03-15 13:52:00,83.0,0.0,30.16,WSW,249,9.0,20.0,4,0.00,,,0.00,,2013-03-15 20:52:00,
2013-03-15 14:01:00,84.0,1.0,30.16,WSW,256,7.0,18.0,4,0.00,,,0.00,,2013-03-15 21:01:00,
2013-03-15 14:11:00,84.0,1.0,30.16,WSW,256,7.0,18.0,4,0.00,,,0.00,,2013-03-15 21:11:00,
2013-03-15 14:21:00,84.0,-5.0,30.15,WNW,285,12.0,17.0,3,0.00,,,0.00,,2013-03-15 21:21:00,
2013-03-15 14:32:00,84.0,1.0,30.14,West,261,13.0,21.0,4,0.00,,,0.00,,2013-03-15 21:32:00,
2013-03-15 14:42:00,84.0,1.0,30.14,West,261,13.0,21.0,4,0.00,,,0.00,,2013-03-15 21:42:00,
2013-03-15 14:52:00,85.0,2.0,30.14,WSW,242,12.0,24.0,4,0.00,,,0.00,,2013-03-15 21:52:00,
2013-03-15 15:02:00,84.0,6.0,30.14,South,187,15.0,21.0,5,0.00,,,0.00,,2013-03-15 22:02:00,
2013-03-15 15:12:00,84.0,6.0,30.14,South,187,15.0,21.0,5,0.00,,,0.00,,2013-03-15 22:12:00,
2013-03-15 15:22:00,84.0,6.0,30.13,West,268,11.0,22.0,5,0.00,,,0.00,,2013-03-15 22:22:00,
2013-03-15 15:32:00,84.0,1.0,30.13,SW,228,13.0,19.0,4,0.00,,,0.00,,2013-03-15 22:32:00,
2013-03-15 15:41:00,84.0,1.0,30.13,SW,228,13.0,19.0,4,0.00,,,0.00,,2013-03-15 22:41:00,
2013-03-15 15:52:00,84.0,1.0,30.12,SW,228,14.0,22.0,4,0.00,,,0.00,,2013-03-15 22:52:00,
2013-03-15 16:02:00,84.0,1.0,30.12,West,267,14.0,23.0,4,0.00,,,0.00,,2013-03-15 23:02:00,
2013-03-15 16:11:00,84.0,1.0,30.12,West,267,14.0,23.0,4,0.00,,,0.00,,2013-03-15 23:11:00,
2013-03-15 16:21:00,84.0,1.0,30.12,West,276,11.0,25.0,4,0.00,,,0.00,,2013-03-15 23:21:00,
2013-03-15 16:32:00,84.0,6.0,30.11,WSW,242,11.0,18.0,5,0.00,,,0.00,,2013-03-15 23:32:00,
2013-03-15 16:42:00,84.0,6.0,30.11,WSW,242,11.0,18.0,5,0.00,,,0.00,,2013-03-15 23:42:00,
2013-03-15 16:53:00,83.0,5.0,30.11,West,274,14.0,24.0,5,0.00,,,0.00,,2013-03-15 23:53:00,
2013-03-15 17:02:00,83.0,9.0,30.11,WSW,257,14.0,27.0,6,0.00,,,0.00,,2013-03-16 00:02:00,
2013-03-15 17:11:00,83.0,9.0,30.11,WSW,257,14.0,27.0,6,0.00,,,0.00,,2013-03-16 00:11:00,
2013-03-15 17:22:00,81.0,14.0,30.11,West,274,14.0,21.0,8,0.00,,,0.00,,2013-03-16 00:22:00,
2013-03-15 17:32:00,81.0,17.0,30.11,West,273,14.0,19.0,9,0.00,,,0.00,,2013-03-16 00:32:00,
2013-03-15 17:52:00,80.0,19.0,30.11,West,274,12.0,19.0,10,0.00,,,0.00,,2013-03-16 00:52:00,
2013-03-15 18:01:00,79.0,18.0,30.11,West,277,12.0,19.0,10,0.00,,,0.00,,2013-03-16 01:01:00,
2013-03-15 18:21:00,78.0,19.0,30.12,WSW,252,9.0,18.0,11,0.00,,,0.00,,2013-03-16 01:21:00,
2013-03-15 18:31:00,77.0,20.0,30.12,WNW,287,11.0,16.0,12,0.00,,,0.00,,2013-03-16 01:31:00,
2013-03-15 18:52:00,76.0,22.0,30.13,West,264,8.0,13.0,13,0.00,,,0.00,,2013-03-16 01:52:00,
2013-03-15 19:02:00,75.0,23.0,30.13,West,271,5.0,10.0,14,0.00,,,0.00,,2013-03-16 02:02:00,
2013-03-15 19:22:00,73.0,23.0,30.13,West,266,3.0,7.0,15,0.00,,,0.00,,2013-03-16 02:22:00,
2013-03-15 19:32:00,72.0,23.0,30.13,WSW,255,3.0,6.0,16,0.00,,,0.00,,2013-03-16 02:32:00,
2013-03-15 19:52:00,69.0,24.0,30.14,South,176,2.0,5.0,18,0.00,,,0.00,,2013-03-16 02:52:00,
2013-03-15 20:01:00,68.0,24.0,30.14,SSW,205,3.0,5.0,19,0.00,,,0.00,,2013-03-16 03:01:00,
2013-03-15 20:11:00,68.0,24.0,30.14,SSW,205,3.0,5.0,19,0.00,,,0.00,,2013-03-16 03:11:00,
2013-03-15 20:21:00,67.0,23.0,30.14,SW,228,3.0,5.0,19,0.00,,,0.00,,2013-03-16 03:21:00,
2013-03-15 20:22:00,67.0,21.0,30.14,WSW,245,2.0,5.0,17,0.00,,,0.00,,2013-03-16 03:22:00,
2013-03-15 20:32:00,67.0,22.0,30.14,WSW,243,3.0,6.0,18,0.00,,,0.00,,2013-03-16 03:32:00,
2013-03-15 20:42:00,67.0,22.0,30.14,WSW,243,3.0,6.0,18,0.00,,,0.00,,2013-03-16 03:42:00,
2013-03-15 20:53:00,67.0,21.0,30.14,WSW,245,2.0,5.0,17,0.00,,,0.00,,2013-03-16 03:53:00,
2013-03-15 21:02:00,67.0,21.0,30.14,WSW,245,2.0,5.0,17,0.00,,,0.00,,2013-03-16 04:02:00,
2013-03-15 21:12:00,67.0,21.0,30.14,WSW,245,2.0,5.0,17,0.00,,,0.00,,2013-03-16 04:12:00,